• MPC Preparation (Info)

  • MPEC 2022-U401 : 2022 TE14

    The following Minor Planet Electronic Circular may be linked-to from your own Web pages, but must not otherwise be redistributed electronically.

    A form allowing access to any MPEC is at the bottom of this page.


    Read MPEC 2022-U400 Read MPEC 2022-U402


    M.P.E.C. 2022-U401                             Issued 2022 October 31, 14:10 UT
    
         The Minor Planet Electronic Circulars contain information on unusual
             minor planets and routine data on comets.  They are published
        on behalf of Division F of the International Astronomical Union by the
              Minor Planet Center, Smithsonian Astrophysical Observatory,
                              Cambridge, MA 02138, U.S.A.
    
                 Prepared using the Tamkin Foundation Computer Network
    
                                  MPC@CFA.HARVARD.EDU
                URL https://www.minorplanetcenter.net/    ISSN 1523-6714
    
                                    2022 TE14                                
    
    
    Observations:
         K22T14E  C2022 09 22.50800002 06 55.006+06 44 43.72         22.13GVEU401F51
         K22T14E  C2022 09 22.51153002 06 55.074+06 44 42.75         22.68GVEU401F51
         K22T14E  C2022 09 22.52215202 06 55.312+06 44 39.79         22.67GVEU401F51
         K22T14E  C2022 09 22.52555502 06 55.395+06 44 38.93         22.55GVEU401F51
         K22T14E  C2022 09 22.53957402 06 55.735+06 44 34.86         23.31GVEU401F51
         K22T14E  C2022 09 22.55017202 06 55.967+06 44 32.07         22.22GVEU401F51
         K22T14E  C2022 09 22.55369602 06 56.070+06 44 31.04         22.43GVEU401F51
         K22T14E* C2022 10 04.57689102 10 42.827+05 23 46.74         22.02wUEU401F52
         K22T14E  C2022 10 04.58968802 10 42.818+05 23 40.08         21.65wUEU401F52
         K22T14E  C2022 10 04.60250702 10 42.859+05 23 33.04         21.72wUEU401F52
         K22T14E  C2022 10 18.42293602 09 05.850+02 41 48.34         20.32GVEU401G96
         K22T14E  C2022 10 18.42909202 09 05.713+02 41 42.94         20.24GVEU401G96
         K22T14E  C2022 10 18.43378602 09 05.512+02 41 38.94         20.47GVEU401G96
         K22T14E  C2022 10 18.43848702 09 05.357+02 41 35.16         20.03GVEU401G96
         K22T14E  C2022 10 29.26964602 03 05.368-00 23 09.35         20.16GVEU401G96
         K22T14E  C2022 10 29.27480802 03 05.090-00 23 15.65         20.20GVEU401G96
         K22T14E  C2022 10 29.27997902 03 04.799-00 23 21.34         20.12GVEU401G96
         K22T14E  C2022 10 29.28516802 03 04.518-00 23 27.53         20.17GVEU401G96
         K22T14E  C2022 10 31.36714402 01 30.800-01 04 36.74         20.41wUEU401F51
         K22T14E  C2022 10 31.37844602 01 30.107-01 04 50.46         20.37wUEU401F51
         K22T14E  C2022 10 31.38970802 01 29.417-01 05 04.12         20.41wUEU401F51
         K22T14E  C2022 10 31.40095502 01 28.727-01 05 17.78         20.53wUEU401F51
    
    Observer details:
    F51 Pan-STARRS 1, Haleakala.  Observers J. Bulger, K. Chambers, T. Lowe, A.
        Schultz, I. Smith.  Measurers S. Chastel, J. Fairlamb, M. Huber, Y.
        Ramanjooloo, R. Wainscoat, R. Weryk, K. Chambers, T. de Boer, H. Gao,
        C.-C. Lin, E. Magnier.  1.8-m Ritchey-Chretien + CCD.
    F52 Pan-STARRS 2, Haleakala.  Observers J. Bulger, T. Lowe, A. Schultz, I.
        Smith.  Measurers K. Chambers, S. Chastel, T. de Boer, J. Fairlamb, H.
        Gao, M. Huber, C.-C. Lin, E. Magnier, Y. Ramanjooloo, R. Wainscoat, R.
        Weryk.  1.8-m Ritchey-Chretien + CCD.
    G96 Mt. Lemmon Survey.  Observers G. J. Leonard, D. C. Fuls.  Measurers E. J.
        Christensen, D. Fay, J. B. Fazekas, D. C. Fuls, A. R. Gibbs, A. D. Grauer,
        H. Groeller, J. K. Hogan, R. A. Kowalski, S. M. Larson, G. J. Leonard, D.
        Rankin, R. L. Seaman, A. Serrano, F. C. Shelly, K. W. Wierzchos.  1.5-m
        reflector + 10K CCD.
    
    Orbital elements:
    2022 TE14                                                Earth MOID = 0.0034 AU
    Epoch 2022 Aug. 9.0 TT = JDT 2459800.5                  Veres                   
    M 302.87261              (2000.0)            P               Q                  
    n   0.38625685     Peri.  334.35015     -0.26058462     -0.96492289             
    a   1.8673193      Node   130.73731     +0.89288162     -0.25344515             
    e   0.4844668      Incl.    2.41510     +0.36723027     -0.06847895             
    P   2.55           H   22.20          G   0.15           U   5                  
    Residuals in seconds of arc
    220922 F51  0.1+  0.1-    221004 F52  0.2-  0.1+    221029 G96  0.0   0.2+
    220922 F51  0.1-  0.1-    221004 F52  0.2+  0.0     221029 G96  0.2+  0.1+
    220922 F51  0.2-  0.1-    221018 G96  0.2-  0.3-    221031 F51  0.0   0.1-
    220922 F51  0.2-  0.0     221018 G96  0.5+  0.3-    221031 F51  0.0   0.0
    220922 F51  0.0   0.1-    221018 G96  0.4-  0.1-    221031 F51  0.0   0.0
    220922 F51  0.2-  0.1+    221018 G96  0.7-  0.3+    221031 F51  0.0   0.0
    220922 F51  0.1+  0.1+    221029 G96  0.1-  0.2+
    221004 F52  0.1+  0.1-    221029 G96  0.0   0.1-
    
    Ephemeris:
    2022 TE14                a,e,i = 1.87, 0.48, 2                   q = 0.9627
    Date    TT    R. A. (2000) Decl.     Delta      r    Elong.  Phase     V
    2022 10 01    02 10 04.2 +05 53 15   0.4577  1.4276   154.3    17.7    22.2
    ...
    2022 10 16    02 09 53.7 +03 16 16   0.3328  1.3235   167.0     9.7    21.1
    ...
    2022 10 24    02 06 30.4 +01 13 25   0.2780  1.2690   169.1     8.5    20.5
    ...
    2022 10 30    02 02 32.9 -00 37 05   0.2421  1.2291   165.4    11.7    20.3
    2022 10 31    02 01 47.3 -00 56 58   0.2365  1.2225   164.5    12.5    20.3
    2022 11 01    02 01 00.3 -01 17 15   0.2310  1.2160   163.5    13.4    20.2
    ...
    2022 11 07    01 55 51.9 -03 27 32   0.2002  1.1777   156.7    19.5    20.0
    ...
    2022 11 15    01 48 13.1 -06 45 24   0.1638  1.1293   146.3    29.1    19.8
    ...
    2022 11 30    01 33 48.2 -14 52 42   0.1050  1.0500   124.9    50.4    19.3
    
    M. P. C. Staff               (C) Copyright 2022 MPC           M.P.E.C. 2022-U401
    


    Read MPEC 2022-U400 Read MPEC 2022-U402


    MPEC number:

    Enter an MPEC number in one of the following forms:

    • 1997-B01 (the full form)
    • J97B01 (the packed version of the full form)
    • B01 (the abbreviated form)